Chester, SC

6:04 PM EDT on August 16, 2017 (GMT -0400)
Chester

Weather History for KDCM - November, 2013

Change the Weather History Date:

Wednesday, November 20, 2013

  Actual Average (KUZA) Record (KUZA)
Temperature  
Mean Temperature 46 °F -  
Max Temperature 57 °F 62 °F 77 °F (1991)
Min Temperature 35 °F 42 °F 18 °F (1951)
Degree Days  
Heating Degree Days 19    
Moisture  
Dew Point 34 °F    
Average Humidity 60    
Maximum Humidity 87    
Minimum Humidity 41    
Precipitation  
Precipitation 0.00 in - - ()
Sea Level Pressure  
Sea Level Pressure 30.36 in    
Wind  
Wind Speed 8 mph (NE)    
Max Wind Speed 20 mph    
Max Gust Speed 24 mph    
Visibility 8 miles    
Events      
Averages and records for this station are not official NWS values.
T = Trace of Precipitation, MM = Missing Value Source: NWS Daily Summary

Daily Weather History Graph

Daily Weather History Graph

Search for Another Location

Airport or City:

Trip Planner

Search our weather history database for the weather conditions in past years. The results will help you decide how hot, cold, wet, or windy it might be!

Date:

Astronomy

Nov. 20, 2013 Rise Set
Actual Time 7:03 AM EST 5:16 PM EST
Civil Twilight 6:36 AM EST 5:43 PM EST
Nautical Twilight 6:06 AM EST 6:14 PM EST
Astronomical Twilight 5:35 AM EST 6:44 PM EST
Moon 7:58 PM EST (11/20) 9:27 AM EST (11/20)
Length of Visible Light 11h 07m
Length of Day
10h 12m
Waning Gibbous, 91% of the Moon is Illuminated
Nov 20
Waning Gibbous
Nov 25
Last Quarter
Dec 2
New
Dec 9
First Quarter
Dec 17
Full

Hourly Weather History & Observations

Time (EST) Temp. Windchill Dew Point Humidity Pressure Visibility Wind Dir Wind Speed Gust Speed Precip Events Conditions
12:15 AM 42.8 °F 38.6 °F 32.0 °F 66% 30.26 in 7.0 mi NE 6.9 mph - N/A   Clear
12:35 AM 42.8 °F 39.3 °F 32.0 °F 66% 30.26 in 7.0 mi NE 5.8 mph - N/A   Clear
12:55 AM 42.8 °F 38.6 °F 32.0 °F 66% 30.29 in 7.0 mi North 6.9 mph - N/A   Clear
1:15 AM 42.8 °F 38.0 °F 32.0 °F 66% 30.26 in 7.0 mi NE 8.1 mph - N/A   Clear
1:35 AM 42.8 °F 38.6 °F 32.0 °F 66% 30.26 in 7.0 mi NE 6.9 mph - N/A   Clear
1:55 AM 42.8 °F 39.3 °F 32.0 °F 66% 30.28 in 7.0 mi NNE 5.8 mph - N/A   Clear
2:15 AM 42.8 °F 38.6 °F 32.0 °F 66% 30.27 in 7.0 mi NE 6.9 mph - N/A   Clear
2:35 AM 41.0 °F 37.1 °F 32.0 °F 70% 30.30 in 7.0 mi NNE 5.8 mph - N/A   Clear
2:55 AM 39.2 °F 34.2 °F 32.0 °F 75% 30.30 in 7.0 mi NNE 6.9 mph - N/A   Clear
3:15 AM 37.4 °F 32.1 °F 32.0 °F 81% 30.30 in 10.0 mi NNE 6.9 mph - N/A   Clear
3:35 AM 39.2 °F 34.2 °F 32.0 °F 75% 30.30 in 10.0 mi NE 6.9 mph - N/A   Clear
3:55 AM 39.2 °F 34.2 °F 32.0 °F 75% 30.30 in 10.0 mi NE 6.9 mph - N/A   Clear
4:15 AM 37.4 °F 32.8 °F 32.0 °F 81% 30.31 in 10.0 mi NE 5.8 mph - N/A   Clear
4:35 AM 37.4 °F 32.1 °F 32.0 °F 81% 30.32 in 10.0 mi NNE 6.9 mph - N/A   Clear
4:55 AM 37.4 °F 32.1 °F 32.0 °F 81% 30.32 in 10.0 mi NE 6.9 mph - N/A   Clear
5:15 AM 37.4 °F 31.4 °F 32.0 °F 81% 30.33 in 10.0 mi NE 8.1 mph - N/A   Clear
5:35 AM 37.4 °F 32.1 °F 32.0 °F 81% 30.33 in 10.0 mi NNE 6.9 mph - N/A   Clear
5:55 AM 37.4 °F 32.1 °F 32.0 °F 81% 30.34 in 10.0 mi NNE 6.9 mph - N/A   Clear
6:15 AM 35.6 °F 30.7 °F 32.0 °F 87% 30.35 in 10.0 mi NNE 5.8 mph - N/A   Clear
6:35 AM 37.4 °F 32.1 °F 32.0 °F 81% 30.35 in 10.0 mi NNE 6.9 mph - N/A   Clear
6:55 AM 37.4 °F 31.4 °F 32.0 °F 81% 30.36 in 10.0 mi NNE 8.1 mph - N/A   Clear
7:15 AM 37.4 °F 32.1 °F 32.0 °F 81% 30.37 in 10.0 mi NNE 6.9 mph - N/A   Clear
7:35 AM 37.4 °F 30.8 °F 32.0 °F 81% 30.38 in 10.0 mi NNE 9.2 mph - N/A   Clear
7:55 AM 41.0 °F 34.3 °F 32.0 °F 70% 30.38 in 10.0 mi NNE 11.5 mph - N/A   Clear
8:15 AM 42.8 °F 37.5 °F 32.0 °F 66% 30.39 in 10.0 mi NNE 9.2 mph - N/A   Clear
8:35 AM 42.8 °F 34.3 °F 32.0 °F 66% 30.39 in 10.0 mi NNE 19.6 mph - N/A   Clear
8:55 AM 44.6 °F 38.1 °F 32.0 °F 61% 30.40 in 10.0 mi NE 13.8 mph 24.2 mph N/A   Clear
9:15 AM 44.6 °F 37.8 °F 32.0 °F 61% 30.40 in 10.0 mi NNE 15.0 mph - N/A   Clear
9:35 AM 46.4 °F 39.8 °F 32.0 °F 57% 30.41 in 7.0 mi NNE 16.1 mph 23.0 mph N/A   Clear
9:55 AM 48.2 °F - 32.0 °F 54% 30.41 in 7.0 mi NE 13.8 mph 21.9 mph N/A   Clear
10:15 AM 50.0 °F - 32.0 °F 50% 30.41 in 7.0 mi NE 10.4 mph 18.4 mph N/A   Clear
10:35 AM 50.0 °F - 32.0 °F 50% 30.41 in 7.0 mi NE 15.0 mph 19.6 mph N/A   Clear
10:55 AM 50.0 °F - 32.0 °F 50% 30.42 in 7.0 mi NE 15.0 mph 19.6 mph N/A   Clear
11:15 AM 51.8 °F - 32.0 °F 47% 30.41 in 7.0 mi NE 12.7 mph 19.6 mph N/A   Clear
11:35 AM 51.8 °F - 32.0 °F 47% 30.40 in 7.0 mi NE 10.4 mph - N/A   Clear
11:55 AM 53.6 °F - 32.0 °F 44% 30.39 in 7.0 mi East 9.2 mph - N/A   Clear
12:15 PM 53.6 °F - 32.0 °F 44% 30.38 in 7.0 mi NE 10.4 mph 17.3 mph N/A   Clear
12:35 PM 53.6 °F - 32.0 °F 44% 30.36 in 7.0 mi NNE 12.7 mph 18.4 mph N/A   Clear
12:55 PM 55.4 °F - 33.8 °F 44% 30.36 in 7.0 mi ESE 9.2 mph - N/A   Clear
1:15 PM 55.4 °F - 32.0 °F 41% 30.35 in 7.0 mi NNE 4.6 mph - N/A   Clear
1:35 PM 55.4 °F - 33.8 °F 44% 30.34 in 5.0 mi ENE 10.4 mph 17.3 mph N/A   Haze
1:55 PM 55.4 °F - 33.8 °F 44% 30.34 in 7.0 mi East 5.8 mph - N/A   Clear
2:15 PM 57.2 °F - 33.8 °F 41% 30.33 in 10.0 mi NE 12.7 mph - N/A   Clear
2:35 PM 55.4 °F - 33.8 °F 44% 30.33 in 7.0 mi NE 12.7 mph - N/A   Clear
2:55 PM 55.4 °F - 33.8 °F 44% 30.33 in 7.0 mi ENE 6.9 mph - N/A   Clear
3:15 PM 55.4 °F - 33.8 °F 44% 30.33 in 7.0 mi NE 6.9 mph - N/A   Clear
3:35 PM 55.4 °F - 33.8 °F 44% 30.33 in 7.0 mi NE 6.9 mph - N/A   Clear
3:55 PM 55.4 °F - 33.8 °F 44% 30.33 in 7.0 mi East 6.9 mph - N/A   Clear
4:15 PM 55.4 °F - 33.8 °F 44% 30.33 in 10.0 mi NE 5.8 mph - N/A   Clear
4:35 PM 53.6 °F - 35.6 °F 51% 30.34 in 7.0 mi ENE 3.5 mph - N/A   Scattered Clouds
4:55 PM 53.6 °F - 35.6 °F 51% 30.34 in 7.0 mi ENE 8.1 mph - N/A   Overcast
5:15 PM 53.6 °F - 35.6 °F 51% 30.34 in 10.0 mi NE 5.8 mph - N/A   Overcast
5:35 PM 53.6 °F - 35.6 °F 51% 30.35 in 10.0 mi ENE 5.8 mph - N/A   Overcast
5:55 PM 51.8 °F - 35.6 °F 54% 30.35 in 10.0 mi NE 4.6 mph - N/A   Scattered Clouds
6:15 PM 50.0 °F - 35.6 °F 58% 30.35 in 7.0 mi NE 4.6 mph - N/A   Scattered Clouds
6:35 PM 50.0 °F - 35.6 °F 58% 30.37 in 10.0 mi NNE 4.6 mph - N/A   Mostly Cloudy
6:55 PM 48.2 °F - 35.6 °F 62% 30.37 in 7.0 mi NE 4.6 mph - N/A   Mostly Cloudy
7:15 PM 50.0 °F - 37.4 °F 62% 30.39 in 7.0 mi NNE 4.6 mph - N/A   Overcast
7:35 PM 50.0 °F - 35.6 °F 58% 30.39 in 7.0 mi NNE 5.8 mph - N/A   Overcast
7:55 PM 50.0 °F - 35.6 °F 58% 30.39 in 7.0 mi NE 8.1 mph - N/A   Mostly Cloudy
8:15 PM 48.2 °F - 35.6 °F 62% 30.40 in 7.0 mi NE 4.6 mph - N/A   Scattered Clouds
8:35 PM 50.0 °F - 37.4 °F 62% 30.40 in 10.0 mi NE 8.1 mph - N/A   Mostly Cloudy
8:55 PM 50.0 °F - 37.4 °F 62% 30.40 in 7.0 mi NE 6.9 mph - N/A   Mostly Cloudy
9:15 PM 50.0 °F - 37.4 °F 62% 30.41 in 10.0 mi NE 9.2 mph - N/A   Mostly Cloudy
9:35 PM 50.0 °F - 37.4 °F 62% 30.41 in 10.0 mi NE 9.2 mph - N/A   Overcast
9:55 PM 50.0 °F - 35.6 °F 58% 30.42 in 7.0 mi NE 9.2 mph - N/A   Overcast
10:15 PM 50.0 °F - 35.6 °F 58% 30.42 in 7.0 mi NE 12.7 mph 17.3 mph N/A   Overcast
10:35 PM 50.0 °F - 35.6 °F 58% 30.42 in 10.0 mi NE 9.2 mph - N/A   Overcast
10:55 PM 50.0 °F - 35.6 °F 58% 30.43 in 7.0 mi NE 9.2 mph - N/A   Overcast
11:15 PM 50.0 °F - 35.6 °F 58% 30.43 in 7.0 mi NE 9.2 mph 17.3 mph N/A   Overcast
11:35 PM 50.0 °F - 35.6 °F 58% 30.44 in 10.0 mi NNE 8.1 mph - N/A   Overcast
11:55 PM 50.0 °F - 35.6 °F 58% 30.42 in 7.0 mi NE 10.4 mph - N/A   Overcast